Voltar ao catálogo

STARLINK-5869

AtivoComunicaçõesVLEO
NORAD 57061·PAYLOAD·🇺🇸 United States

Lançado Jun 22, 2023 de Vandenberg Space Force Base

Loading…

Próximas Passagens (próximas 24 horas)

TLE

AtualizadoSource: CelesTrak SupGP

Época: Sep 15, 2026, 02:55 UTC

1 57061C 23088P   26258.12201389  .00047642  00000+0  17260-2 0  2587
2 57061  42.9998 124.0997 0001395 262.9052 158.8608 15.27547999    13

Acompanhe STARLINK-5869 em tempo real com AllMySat

Download on the App Store